Location: Elliott Corner
(37.4627°N, 119.7746°W)
Time: 23:38:51
(UTC+00:00)

Chandra Rocket (1) - Pass Details

Date: 10 September 2024
Orbit: 283 x 10827 km, 28.4° (Epoch: 13 October)

Event Time Altitude Azimuth Distance (km) Brightness Sun altitude
Exits shadow 12:13:22 22° 202° (SSW) 1,245 3.2 -17.0°
Maximum altitude 12:14:48 29° 165° (SSE) 1,288 3.6 -16.8°
Drops below altitude 10° 12:21:25 10° 109° (ESE) 3,740 6.8 -15.5°
Sets 12:27:40 0° 101° (E) 6,272 8.3 -14.4°
